Location: Newark
(48.1333°N, 17.1000°E)
Time: 01:54:51
(UTC+00:00)

N. Korean satellite - Pass Details

Date: 25 January 2020
Orbit: 456 x 505 km, 97.2° (Epoch: 21 February)

Event Time Altitude Azimuth Distance (km) Brightness Sun altitude
Rises 05:41:31 0° 360° (N) 2,530 10.0 -8.1°
Reaches altitude 10° 05:43:53 10° 345° (NNW) 1,656 8.9 -7.7°
Maximum altitude 05:46:40 22° 293° (WNW) 1,102 7.8 -7.2°
Drops below altitude 10° 05:49:28 10° 242° (WSW) 1,667 8.9 -6.8°
Sets 05:51:51 0° 226° (SW) 2,553 10.0 -6.4°
